This is the latest recevied weather packets stored in our database for station/object K7SKM. If no packets are shown the sender has not sent any weather packets the latest 10 day(s).
| Time | Temp. | Humidity | Pressure | Rain* | Wind** | Luminosity | Snow |
|---|---|---|---|---|---|---|---|
| 1777905218 | 12.78° C | 78% | 1015.1 hPa | 0 mm | - | 151 W/m² | - |
| 1777904916 | 12.22° C | 79% | 1014.9 hPa | 0 mm | - | 141 W/m² | - |
| 1777904613 | 11.67° C | 80% | 1015 hPa | 0 mm | - | 125 W/m² | - |
| 1777904310 | 11.67° C | 80% | 1015 hPa | 0 mm | - | 108 W/m² | - |
| 1777904007 | 11.67° C | 81% | 1014.8 hPa | 0 mm | - | 86 W/m² | - |
| 1777903704 | 11.67° C | 81% | 1015 hPa | 0 mm | - | 105 W/m² | - |
| 1777903399 | 11.67° C | 82% | 1014.9 hPa | 0 mm | - | 100 W/m² | - |
| 1777903096 | 11.11° C | 84% | 1014.8 hPa | 0 mm | - | 98 W/m² | - |
| 1777902793 | 10.56° C | 86% | 1014.7 hPa | 0 mm | - | 44 W/m² | - |
| 1777902490 | 10.56° C | 86% | 1014.7 hPa | 0 mm | - | 26 W/m² | - |
| 1777902187 | 10.56° C | 87% | 1014.7 hPa | 0 mm | - | 25 W/m² | - |
| 1777901885 | 10° C | 87% | 1014.6 hPa | 0 mm | - | 21 W/m² | - |
| 1777901582 | 10° C | 87% | 1014.5 hPa | 0 mm | - | 21 W/m² | - |
| 1777901279 | 10° C | 88% | 1014.6 hPa | 0 mm | - | 14 W/m² | - |
| 1777900977 | 10° C | 88% | 1014.7 hPa | 0 mm | - | 12 W/m² | - |
| 1777900674 | 10° C | 88% | 1014.7 hPa | 0 mm | - | 9 W/m² | - |
| 1777900371 | 10° C | 87% | 1014.4 hPa | 0 mm | - | 6 W/m² | - |
| 1777900068 | 10° C | 87% | 1014.2 hPa | 0 mm | - | 4 W/m² | - |
| 1777899764 | 10° C | 87% | 1014.2 hPa | 0 mm | - | 2 W/m² | - |
| 1777899461 | 10° C | 87% | 1014.2 hPa | 0 mm | - | 0 W/m² | - |
| 1777899159 | 10° C | 87% | 1014.2 hPa | 0 mm | - | 0 W/m² | - |
| 1777898856 | 10° C | 88% | 1014.1 hPa | 0 mm | - | 0 W/m² | - |
| 1777898554 | 10° C | 87% | 1014.1 hPa | 0 mm | - | 0 W/m² | - |
| 1777898251 | 10° C | 87% | 1014.3 hPa | 0 mm | - | 0 W/m² | - |
| 1777897948 | 10.56° C | 87% | 1014.1 hPa | 0 mm | - | 0 W/m² | - |
* Rain latest hour (hover to see other rain measurements)
** Current wind speed in m/s (hover to see current wind gust speed)